User: anonymous
Location: Fort Wayne
(41.1310°N, 85.1290°W)
Time: 21:12:14
(UTC-04:00)
Language:

COSMOS 2428 - Orbit

View from above orbital plane
View from above orbital plane
View from above satellite
View from above satellite

Ground track
Ground track

The orbit data is extracted from the following two-line orbital elements,

1 31792U 07029A   14238.36241137  .00000353  00000-0  21717-3 0  9379
2 31792 070.9626 042.4914 0006972 007.2027 064.0464 14.12403640369221
Epoch (UTC): 26 August 2014 08:41:52
Eccentricity: 0.0006972
inclination: 70.9626°
perigee height: 846 km
apogee height: 856 km
right ascension of ascending node: 42.4914°
argument of perigee: 7.2027°
revolutions per day: 14.12403640
mean anomaly at epoch: 64.0464°
orbit number at epoch: 36922

The dashed part of the orbit path shows where the satellite is in the earth's shadow,  

DLR